Meteo pe oră la Dabie

Astăzi, 11 Aprilie, Duminică

Timp Temperatura Precipitaţii Vânt Presiune Umiditate
00:00 +6°C° 0 mm 2 m/s 750 mmHg 94%
01:00 +5°C° 0 mm 3 m/s 749 mmHg 95%
02:00 +5°C° 0 mm 3 m/s 749 mmHg 93%
03:00 +5°C° 0 mm 3 m/s 749 mmHg 91%
04:00 +5°C° 0 mm 3 m/s 748 mmHg 89%
05:00 +7°C° 0 mm 3 m/s 748 mmHg 84%
06:00 +7°C° 0 mm 4 m/s 748 mmHg 79%
07:00 +8°C° 0 mm 4 m/s 748 mmHg 75%
08:00 +10°C° 0 mm 5 m/s 748 mmHg 69%
09:00 +11°C° 0 mm 6 m/s 748 mmHg 64%
10:00 +14°C° 0 mm 7 m/s 747 mmHg 58%
11:00 +14°C° 0 mm 7 m/s 747 mmHg 58%
12:00 +14°C° 0 mm 7 m/s 747 mmHg 58%
13:00 +14°C° 0 mm 7 m/s 747 mmHg 58%
14:00 +15°C° 0 mm 6 m/s 747 mmHg 58%
15:00 +15°C° 0 mm 5 m/s 747 mmHg 59%
16:00 +15°C° 0 mm 4 m/s 746 mmHg 60%
17:00 +14°C° 0 mm 4 m/s 747 mmHg 64%
18:00 +13°C° 0 mm 3 m/s 747 mmHg 68%
19:00 +12°C° 0 mm 3 m/s 747 mmHg 72%
20:00 +11°C° 0 mm 3 m/s 747 mmHg 74%
21:00 +11°C° 0 mm 4 m/s 747 mmHg 76%
22:00 +10°C° 0 mm 4 m/s 748 mmHg 78%
23:00 +8°C° 0 mm 4 m/s 748 mmHg 79%

Mâine, 12 Aprilie, Luni

Timp Temperatura Precipitaţii Vânt Presiune Umiditate
00:00 +9°C° 0 mm 3 m/s 748 mmHg 81%
01:00 +8°C° 0 mm 3 m/s 748 mmHg 82%
02:00 +8°C° 0 mm 3 m/s 749 mmHg 85%
03:00 +8°C° 0 mm 3 m/s 749 mmHg 88%
04:00 +7°C° 0 mm 4 m/s 750 mmHg 91%
05:00 +6°C° 0 mm 4 m/s 750 mmHg 89%
06:00 +6°C° 0 mm 4 m/s 751 mmHg 88%
07:00 +5°C° 0 mm 5 m/s 751 mmHg 86%
08:00 +5°C° 0.3 mm 5 m/s 752 mmHg 88%
09:00 +3°C° 0.3 mm 5 m/s 752 mmHg 89%
10:00 +2°C° 0.3 mm 5 m/s 753 mmHg 91%
11:00 +2°C° 0.6 mm 5 m/s 753 mmHg 93%
12:00 +1°C° 0.6 mm 4 m/s 754 mmHg 95%
13:00 +1°C° 0.6 mm 4 m/s 754 mmHg 97%
14:00 +1°C° 0.4 mm 4 m/s 755 mmHg 97%
15:00 +1°C° 0.4 mm 4 m/s 755 mmHg 97%
16:00 +2°C° 0.4 mm 3 m/s 755 mmHg 97%
17:00 +2°C° 0.5 mm 3 m/s 756 mmHg 97%
18:00 +2°C° 0.5 mm 3 m/s 756 mmHg 97%
19:00 +2°C° 0.5 mm 3 m/s 756 mmHg 97%
20:00 +2°C° 0.1 mm 3 m/s 757 mmHg 96%
21:00 +2°C° 0.1 mm 3 m/s 757 mmHg 94%
22:00 +2°C° 0.1 mm 3 m/s 757 mmHg 92%
23:00 +2°C° 0.1 mm 3 m/s 757 mmHg 91%

Poimâine, 13 Aprilie, Marţi

Timp Temperatura Precipitaţii Vânt Presiune Umiditate
00:00 +3°C° 0.1 mm 2 m/s 757 mmHg 90%
01:00 +3°C° 0.1 mm 2 m/s 757 mmHg 90%
02:00 +3°C° 0.1 mm 2 m/s 757 mmHg 89%
03:00 +3°C° 0.1 mm 2 m/s 758 mmHg 89%
04:00 +3°C° 0.1 mm 2 m/s 758 mmHg 89%
05:00 +3°C° 0 mm 2 m/s 758 mmHg 88%
06:00 +3°C° 0 mm 2 m/s 758 mmHg 86%
07:00 +4°C° 0 mm 2 m/s 758 mmHg 84%
08:00 +3°C° 0 mm 3 m/s 758 mmHg 78%
09:00 +4°C° 0 mm 3 m/s 758 mmHg 73%
10:00 +5°C° 0 mm 3 m/s 759 mmHg 67%
11:00 +6°C° 0.1 mm 4 m/s 758 mmHg 61%
12:00 +6°C° 0.1 mm 4 m/s 758 mmHg 56%
13:00 +7°C° 0.1 mm 5 m/s 758 mmHg 50%
14:00 +7°C° 0 mm 4 m/s 758 mmHg 49%
15:00 +7°C° 0 mm 4 m/s 757 mmHg 48%
16:00 +7°C° 0 mm 4 m/s 757 mmHg 47%
17:00 +7°C° 0 mm 3 m/s 757 mmHg 50%
18:00 +7°C° 0 mm 3 m/s 757 mmHg 53%
19:00 +6°C° 0 mm 2 m/s 757 mmHg 56%
20:00 +5°C° 0 mm 2 m/s 757 mmHg 59%
21:00 +5°C° 0 mm 2 m/s 758 mmHg 62%
22:00 +3°C° 0 mm 3 m/s 758 mmHg 65%
23:00 +3°C° 0 mm 3 m/s 758 mmHg 69%

14 Aprilie, Miercuri

Timp Temperatura Precipitaţii Vânt Presiune Umiditate
00:00 +2°C° 0 mm 3 m/s 757 mmHg 73%
01:00 +2°C° 0 mm 3 m/s 757 mmHg 76%
02:00 +2°C° 0 mm 3 m/s 757 mmHg 77%
03:00 +1°C° 0 mm 3 m/s 757 mmHg 79%
04:00 +1°C° 0 mm 3 m/s 757 mmHg 80%
05:00 +1°C° 0 mm 3 m/s 757 mmHg 78%
06:00 +1°C° 0 mm 4 m/s 758 mmHg 77%
07:00 +1°C° 0 mm 4 m/s 758 mmHg 75%
08:00 +2°C° 0 mm 5 m/s 758 mmHg 70%
09:00 +3°C° 0 mm 5 m/s 757 mmHg 65%
10:00 +4°C° 0 mm 6 m/s 757 mmHg 60%
11:00 +4°C° 0 mm 6 m/s 757 mmHg 56%
12:00 +5°C° 0 mm 6 m/s 757 mmHg 52%
13:00 +5°C° 0 mm 6 m/s 756 mmHg 48%
14:00 +5°C° 0 mm 6 m/s 756 mmHg 49%
15:00 +7°C° 0 mm 5 m/s 756 mmHg 51%
16:00 +7°C° 0 mm 5 m/s 756 mmHg 52%
17:00 +6°C° 0 mm 5 m/s 756 mmHg 57%
18:00 +5°C° 0 mm 4 m/s 756 mmHg 61%
19:00 +4°C° 0 mm 4 m/s 756 mmHg 65%
20:00 +4°C° 0.3 mm 3 m/s 756 mmHg 74%
21:00 +3°C° 0.3 mm 3 m/s 756 mmHg 84%
22:00 +3°C° 0.3 mm 2 m/s 756 mmHg 93%
23:00 +2°C° 0 mm 3 m/s 756 mmHg 89%

15 Aprilie, Joi

Timp Temperatura Precipitaţii Vânt Presiune Umiditate
00:00 +2°C° 0 mm 3 m/s 756 mmHg 86%
01:00 +2°C° 0 mm 3 m/s 756 mmHg 82%
02:00 +2°C° 0 mm 3 m/s 756 mmHg 82%
03:00 +1°C° 0 mm 3 m/s 756 mmHg 82%
04:00 +1°C° 0 mm 3 m/s 756 mmHg 82%
05:00 0°C° 0.1 mm 4 m/s 756 mmHg 82%
06:00 0°C° 0.1 mm 4 m/s 756 mmHg 83%
07:00 -1°C° 0.1 mm 5 m/s 756 mmHg 83%
08:00 0°C° 0.4 mm 5 m/s 756 mmHg 86%
09:00 0°C° 0.4 mm 5 m/s 756 mmHg 89%
10:00 -1°C° 0.4 mm 6 m/s 756 mmHg 91%
11:00 0°C° 0.7 mm 5 m/s 756 mmHg 93%
12:00 +1°C° 0.7 mm 5 m/s 756 mmHg 95%
13:00 +1°C° 0.7 mm 5 m/s 756 mmHg 97%
14:00 +1°C° 1 mm 5 m/s 756 mmHg 97%
15:00 +1°C° 1 mm 4 m/s 756 mmHg 97%
16:00 +1°C° 1 mm 4 m/s 756 mmHg 97%
17:00 +1°C° 1.1 mm 4 m/s 756 mmHg 98%
18:00 +1°C° 1.1 mm 4 m/s 756 mmHg 98%
19:00 +2°C° 1.1 mm 3 m/s 756 mmHg 98%
20:00 +2°C° 0.7 mm 3 m/s 756 mmHg 98%
21:00 +2°C° 0.7 mm 3 m/s 756 mmHg 98%
22:00 +2°C° 0.7 mm 3 m/s 756 mmHg 98%
23:00 +2°C° 0.3 mm 3 m/s 756 mmHg 98%

16 Aprilie, Vineri

Timp Temperatura Precipitaţii Vânt Presiune Umiditate
00:00 +2°C° 0.3 mm 3 m/s 756 mmHg 98%
01:00 +2°C° 0.3 mm 3 m/s 756 mmHg 98%
02:00 +2°C° 0.5 mm 3 m/s 756 mmHg 98%
03:00 +2°C° 0.5 mm 3 m/s 756 mmHg 97%
04:00 +2°C° 0.5 mm 3 m/s 756 mmHg 97%
05:00 +2°C° 0.2 mm 3 m/s 757 mmHg 96%
06:00 +2°C° 0.2 mm 3 m/s 757 mmHg 96%
07:00 +2°C° 0.2 mm 3 m/s 757 mmHg 95%
08:00 +3°C° 0.1 mm 3 m/s 757 mmHg 91%
09:00 +3°C° 0.1 mm 3 m/s 757 mmHg 86%
10:00 +4°C° 0.1 mm 3 m/s 758 mmHg 82%
11:00 +5°C° 0 mm 3 m/s 758 mmHg 81%
12:00 +5°C° 0 mm 3 m/s 758 mmHg 79%
13:00 +7°C° 0 mm 3 m/s 758 mmHg 78%
14:00 +7°C° 0 mm 3 m/s 758 mmHg 80%
15:00 +6°C° 0 mm 2 m/s 758 mmHg 82%
16:00 +6°C° 0 mm 2 m/s 758 mmHg 84%
17:00 +6°C° 0 mm 2 m/s 758 mmHg 87%
18:00 +5°C° 0 mm 2 m/s 758 mmHg 90%
19:00 +4°C° 0 mm 2 m/s 758 mmHg 94%
20:00 +4°C° 0 mm 2 m/s 758 mmHg 94%
21:00 +4°C° 0 mm 2 m/s 758 mmHg 95%
22:00 +4°C° 0 mm 2 m/s 759 mmHg 95%
23:00 +4°C° 0 mm 2 m/s 759 mmHg 95%
Arată mai mult

Formular de consimțământ

Meteoprog și furnizorii noștri de servicii pot stoca și accesa date personale, precum cookies, identificatori de dispozitiv sau alte tehnologii similare pe dispozitivul dumneavoastră și procesa astfel de date pentru a personaliza conținutul și reclamele, dar și pentru a oferi caracteristici de social media și pentru a analiza traficul.

  • Stocarea și/sau accesarea informațiilor pe dispozitivul dumneavoastră

    Cookies, identificatori de dispozitiv sau alte informații pot fi stocate sau accesate pe dispozitiv în scopurile indicate mai sus.

  • Reclame și conținut personalizat, evaluarea reclamelor și a conținutului, informații despre audiențe și dezvoltarea produselor

    Reclamele și conținutul pot fi personalizate pe baza unui profil. Pot fi adăugate date suplimentare pentru a personaliza mai bine reclamele și conținutul. Performanța reclamelor și conținutului poate fi măsurată. Pot fi obținute informații despre utilizatorii care au văzut reclamele și conținutul. Aceste date pot fi utilizate pentru a dezvolta sau îmbunătăți experiența utilizatorilor, sistemele și software-ul.

Dând clic pe ‘Sunt de acord’, permiteți utilizarea cookie-urilor menționate, a identificatorilor de dispozitiv, balizelor web sau altor tehnologii similare. Setările pot fi modificate din browser-ul dispozitivului dumneavoastră.

În anumite scopuri, interesele legitime pot prima asupra consimțământului. Puteți citi mai multe informații în acest sens în Politica privind Confidențialitatea Datelor și Cookie.